Bangor, ME

1:29 PM EDT on September 26, 2017 (GMT -0400)
Bangor International

Weather History for KBGR - April, 2013

Change the Weather History Date:

Monday, April 29, 2013

  Actual Average Record
Temperature  
Mean Temperature 50 °F 48 °F  
Max Temperature 67 °F 59 °F 85 °F (1935)
Min Temperature 33 °F 37 °F 18 °F (1947)
Degree Days  
Heating Degree Days 15 17  
Month to date heating degree days 701 659  
Since 1 July heating degree days 7081 7382  
Cooling Degree Days 0 0  
Month to date cooling degree days 0 0  
Year to date cooling degree days 0 0  
Moisture  
Dew Point 34 °F    
Average Humidity 61    
Maximum Humidity 100    
Minimum Humidity 22    
Precipitation  
Precipitation 0.00 in 0.12 in 3.09 in (2008)
Month to date precipitation 1.77 3.50  
Year to date precipitation 6.73 12.29  
Snow  
Snow 0.00 in 0.00 in 2.80 in (1987)
Month to date snowfall 1.1 3.7  
Since 1 July snowfall 74.3 66.1  
Snow Depth 0.00 in    
Sea Level Pressure  
Sea Level Pressure 30.26 in    
Wind  
Wind Speed 4 mph (South)    
Max Wind Speed 17 mph    
Max Gust Speed 22 mph    
Visibility 10 miles    
Events      
T = Trace of Precipitation, MM = Missing Value Source: NWS Daily Summary

Daily Weather History Graph

Daily Weather History Graph

Search for Another Location

Airport or City:

Trip Planner

Search our weather history database for the weather conditions in past years. The results will help you decide how hot, cold, wet, or windy it might be!

Date:

Astronomy

Apr. 29, 2013 Rise Set
Actual Time 5:27 AM EDT 7:38 PM EDT
Civil Twilight 4:55 AM EDT 8:10 PM EDT
Nautical Twilight 4:16 AM EDT 8:50 PM EDT
Astronomical Twilight 3:32 AM EDT 9:34 PM EDT
Moon No Moon Rise 8:40 AM EDT (4/29)
Length of Visible Light 15h 14m
Length of Day
14h 10m
Waning Gibbous, 80% of the Moon is Illuminated
Apr 29
Waning Gibbous
May 2
Last Quarter
May 9
New
May 18
First Quarter
May 25
Full

Hourly Weather History & Observations

Time (EDT) Temp. Windchill Dew Point Humidity Pressure Visibility Wind Dir Wind Speed Gust Speed Precip Events Conditions
12:53 AM 39.0 °F - 35.1 °F 86% 30.27 in 10.0 mi Calm Calm - N/A   Clear
1:53 AM 35.1 °F 32.2 °F 33.1 °F 92% 30.27 in 10.0 mi SE 3.5 mph - N/A   Partly Cloudy
2:53 AM 37.0 °F - 34.0 °F 89% 30.26 in 10.0 mi Calm Calm - N/A   Partly Cloudy
3:53 AM 36.0 °F - 33.1 °F 89% 30.26 in 10.0 mi Calm Calm - N/A   Scattered Clouds
4:53 AM 34.0 °F - 32.0 °F 92% 30.26 in 10.0 mi Calm Calm - N/A   Partly Cloudy
5:53 AM 34.0 °F - 33.1 °F 96% 30.27 in 9.0 mi Calm Calm - N/A   Scattered Clouds
6:53 AM 39.9 °F - 36.0 °F 86% 30.28 in 10.0 mi Calm Calm - N/A   Mostly Cloudy
7:53 AM 46.9 °F - 37.0 °F 68% 30.29 in 10.0 mi South 3.5 mph - N/A   Scattered Clouds
8:53 AM 54.0 °F - 37.9 °F 55% 30.29 in 10.0 mi Calm Calm - N/A   Partly Cloudy
9:53 AM 62.1 °F - 34.0 °F 35% 30.28 in 10.0 mi SSE 6.9 mph - N/A   Scattered Clouds
10:53 AM 64.0 °F - 24.1 °F 22% 30.27 in 10.0 mi SSW 9.2 mph - N/A   Scattered Clouds
11:53 AM 64.9 °F - 24.1 °F 21% 30.26 in 10.0 mi SSW 10.4 mph - N/A   Scattered Clouds
12:53 PM 64.9 °F - 26.1 °F 23% 30.25 in 10.0 mi South 10.4 mph 19.6 mph N/A   Scattered Clouds
1:53 PM 64.9 °F - 28.0 °F 25% 30.24 in 10.0 mi SSW 13.8 mph 20.7 mph N/A   Scattered Clouds
2:53 PM 64.9 °F - 27.0 °F 24% 30.23 in 10.0 mi South 16.1 mph - N/A   Partly Cloudy
3:53 PM 63.0 °F - 27.0 °F 26% 30.22 in 10.0 mi SSW 13.8 mph 20.7 mph N/A   Mostly Cloudy
4:53 PM 63.0 °F - 32.0 °F 31% 30.22 in 10.0 mi SSW 10.4 mph - N/A   Mostly Cloudy
5:53 PM 61.0 °F - 34.0 °F 36% 30.22 in 10.0 mi SSE 13.8 mph - N/A   Mostly Cloudy
6:53 PM 55.9 °F - 39.9 °F 55% 30.24 in 10.0 mi South 6.9 mph - N/A   Mostly Cloudy
7:53 PM 53.1 °F - 42.1 °F 66% 30.26 in 10.0 mi South 12.7 mph - N/A   Mostly Cloudy
8:53 PM 50.0 °F - 39.9 °F 68% 30.27 in 10.0 mi South 6.9 mph - N/A   Scattered Clouds
9:53 PM 48.0 °F - 39.0 °F 71% 30.27 in 10.0 mi SW 5.8 mph - N/A   Partly Cloudy
10:53 PM 46.0 °F 43.9 °F 39.0 °F 76% 30.27 in 10.0 mi South 4.6 mph - N/A   Clear
11:53 PM 44.1 °F 42.5 °F 39.9 °F 85% 30.27 in 10.0 mi South 3.5 mph - N/A   Clear